Location: Chervonnoye
(48.6000°N, 34.4000°E)
Time: 20:21:45
(UTC+00:00)

Cosmos 1666 Rocket - Pass Details

Date: 23 November 2020
Orbit: 604 x 633 km, 82.5° (Epoch: 27 January)

Event Time Altitude Azimuth Distance (km) Brightness Sun altitude
Rises 15:20:34 0° 355° (N) 2,894 6.9 -13.9°
Reaches altitude 10° 15:22:53 10° 2° (N) 1,989 6.0 -14.3°
Maximum altitude 15:27:06 44° 75° (ENE) 865 3.8 -14.9°
Drops below altitude 10° 15:31:20 10° 148° (SSE) 1,991 6.0 -15.6°
Sets 15:33:38 0° 155° (SSE) 2,897 6.9 -16.0°
